Tracking 35274 objects as of 11-Sep-2026
HD Live streaming from Space Station
objects crossing your sky now

SL-4 R/B


SL-4 R/B is no longer on orbit


NORAD ID: 20001
Int'l Code: 1989-037B
Launch date: May 24, 1989
Source: Commonwealth of Independent States (former USSR) (CIS)
Launch site: TYURATAM MISSILE AND SPACE COMPLEX (TTMTR)
Decay date: 1989-05-27

Note: This is a ROCKET BODY
Your satellite tracking list
Your tracking list is empty




NASA's NSSDC Master Catalog

Two Line Element Set (TLE):
1 20001U 89037  B 89147.56960427  .20460901 +17998-4 +27643-3 0  9993
2 20001 069.9490 072.4489 0012610 056.3115 304.4296 16.48397674000516
Source of the keplerian elements: AFSPC